[[{"header":{"parameterUnit":"m.s-1","parameterCategory":1,"la1":30.2991,"la2":30.254,"lo1":-89.0895,"lo2":-89.0444,"dy":0.0017,"dx":0.0017,"nx":28,"ny":28,"refTime":"2023-07-18T03:00:00:Z","depth":0,"parameterNumber":2,"parameterNumberName":"U-component_of_WINDS"},"data":[0,0,0,0,0,0,0,0,0,0,0,0,0,0,0,0,0,0,0,0,0,0,0,0,0,0,0,0,0,0,0,0,0,0,0,0,0,0,0,0,0,0,0,0,0,0,0,0,0,0,0,0,0,0,0,0,0,0,1.0721,1.0721,0,1.0795,1.0796,1.0797,1.082,1.082,1.0819,1.0819,1.09,1.0903,1.0905,0,0,0,0,0,0,0,0,0,0,0,0,0,1.0604,1.0606,1.0721,1.0721,1.0722,1.0795,1.0796,1.0797,1.082,1.082,1.0819,1.0819,1.0899,1.0902,1.0905,0,0,0,0,0,0,0,0,0,0,0,0,0,1.0664,1.0606,1.072,1.0743,1.0745,1.0795,1.0796,1.0797,1.082,1.082,1.0819,1.0819,1.0898,1.0902,1.0906,1.094,0,0,1.0917,1.0919,0,0,0,0,0,0,0,0,1.066,1.0668,1.0738,1.0741,1.0744,1.0797,1.0784,1.0845,1.082,1.0792,1.0819,1.0818,1.0867,1.0873,1.0888,1.0944,1.0947,1.0918,1.092,1.0921,1.0923,0,0,0,0,0,0,0,1.0656,1.0665,1.075,1.0739,1.0743,1.075,1.0758,1.0796,1.0832,1.0794,1.0796,1.0804,1.0868,1.0885,1.0891,1.0948,1.0917,1.0921,1.0923,1.0925,1.1036,1.1036,0,0,0,0,0,0,1.0648,1.0661,1.0748,1.0752,1.07,1.0753,1.0762,1.0781,1.0831,1.0838,1.0805,1.0805,1.0879,1.0886,1.0893,1.0937,1.0921,1.0925,1.0927,1.1035,1.1036,1.1037,0,0,0,0,0,0,1.0645,1.0655,1.0745,1.0707,1.0719,1.0755,1.0777,1.0783,1.0799,1.0839,1.0846,1.0815,1.0878,1.0888,1.0928,1.094,1.0927,1.093,1.1034,1.1035,1.1036,1.1023,0,0,0,0,0,0,1.0642,1.0654,1.0666,1.0707,1.0721,1.0776,1.0778,1.0785,1.0805,1.0806,1.085,1.0857,1.0879,1.0922,1.0932,1.0945,1.0933,1.1033,1.1035,1.1036,1.1023,1.1024,1.1025,0,0,0,0,0,1.0637,1.0661,1.0667,1.0677,1.0737,1.0777,1.0785,1.0808,1.0806,1.0819,1.0845,1.0856,1.0937,1.0926,1.0937,1.0951,1.1033,1.1034,1.1036,1.1022,1.1024,1.1025,0,0,0,0,0,0,1.0622,1.0667,1.0674,1.0711,1.074,1.0781,1.0798,1.0809,1.084,1.084,1.0869,1.0879,1.0916,1.0938,1.0925,1.0987,1.0985,1.0989,1.0972,1.0973,1.0974,1.0968,1.0936,0,0,0,0,0,1.0622,1.065,1.0688,1.0717,1.0731,1.0762,1.078,1.0795,1.0827,1.084,1.0869,1.09,1.0933,1.0954,1.0987,1.1026,1.1036,1.1041,1.1042,1.1043,1.1046,1.1069,1.1071,1.1042,1.1042,1.1042,0,0,1.0625,1.0652,1.0668,1.0715,1.0739,1.0768,1.0772,1.0803,1.0825,1.0845,1.0884,1.0906,1.0944,1.0983,1.1002,1.1002,1.1056,1.1045,1.1045,1.1048,1.107,1.1073,1.1076,1.1043,1.1043,1.1042,0,0,1.0643,1.0667,1.0693,1.0717,1.0753,1.0773,1.078,1.0819,1.0834,1.0873,1.0889,1.0916,1.0972,1.0998,1.1018,1.1046,1.1058,1.1056,1.1061,1.1083,1.1085,1.1087,1.1097,1.1101,1.1059,1.1059,1.1059,0,1.0642,1.0684,1.0706,1.0736,1.0756,1.0774,1.0802,1.0825,1.087,1.0884,1.0883,1.0953,1.098,1.1026,1.1032,1.1048,1.1057,1.1051,1.1082,1.1085,1.1087,1.1098,1.1101,1.1059,1.1059,1.1059,1.1059,0,1.0681,1.071,1.0728,1.0769,1.0792,1.082,1.0848,1.0868,1.0881,1.0902,1.0942,1.0974,1.1013,1.1025,1.1039,1.1073,1.1072,1.1076,1.1075,1.1089,1.1099,1.1103,1.1058,1.1058,1.1058,1.1058,0,0,1.0693,1.0745,1.0751,1.077,1.081,1.0834,1.0864,1.09,1.0917,1.0948,1.0975,1.1021,1.1025,1.1048,1.1065,1.1084,1.1104,1.1086,1.1088,1.1089,1.1144,1.114,1.1145,1.1112,1.1113,1.1113,1.1141,0,1.0717,1.0769,1.0789,1.0832,1.086,1.0877,1.0903,1.0932,1.0952,1.098,1.1003,1.1035,1.1038,1.1052,1.1072,1.1097,1.1116,1.1096,1.1138,1.1139,1.1128,1.115,1.1146,1.1171,1.1145,1.1146,1.1146,0,1.0752,1.078,1.0826,1.0862,1.0875,1.0898,1.0933,1.0959,1.0992,1.1005,1.103,1.1046,1.1079,1.1075,1.1122,1.1108,1.1127,1.1142,1.1143,1.1149,1.1144,1.1156,1.1179,1.1183,1.1153,1.1152,1.1152,0,1.0756,1.0806,1.0839,1.0855,1.0899,1.0915,1.0934,1.0966,1.0987,1.1018,1.1032,1.1067,1.1086,1.1114,1.1139,1.1134,1.1184,1.1182,1.1197,1.1196,1.1207,1.1206,1.1234,1.1218,1.1218,1.1218,1.1218,0,1.078,1.0807,1.0842,1.0862,1.0893,1.0917,1.0948,1.0969,1.0997,1.1023,1.1041,1.1066,1.1097,1.1126,1.1146,1.1182,1.1191,1.1203,1.1208,1.1202,1.12,1.1214,1.1214,1.1219,1.1219,1.1219,1.1218,0,1.079,1.0814,1.0852,1.089,1.09,1.0921,1.0954,1.0976,1.0996,1.1029,1.1038,1.1071,1.1106,1.1133,1.1179,1.1193,1.1231,1.1236,1.1219,1.1222,1.1235,1.1233,1.1273,1.128,1.1259,1.1259,1.126,0,1.0804,1.0825,1.0865,1.0883,1.0901,1.093,1.095,1.0975,1.0996,1.1035,1.1052,1.1087,1.1117,1.1172,1.1201,1.1236,1.1243,1.1255,1.1249,1.1241,1.1244,1.1242,1.1244,1.1256,1.1256,1.1256,1.1256,0,1.0827,1.0838,1.0866,1.0898,1.0921,1.0948,1.0976,1.099,1.102,1.1043,1.1077,1.11,1.1146,1.1181,1.1219,1.1241,1.1254,1.1257,1.1263,1.1256,1.1245,1.1251,1.1221,1.1256,1.1256,1.1256,1.1256,1.1256,1.084,1.0859,1.089,1.0921,1.0943,1.0969,1.099,1.1013,1.1042,1.108,1.1093,1.1129,1.1162,1.1214,1.1236,1.1265,1.1266,1.1274,1.1276,1.1277,1.1276,1.124,1.1272,1.1272,1.1272,1.1272,1.1272,0,1.0864,1.0884,1.0912,1.0949,1.0973,1.0981,1.1012,1.1032,1.1063,1.1092,1.112,1.116,1.1194,1.1225,1.1261,1.1279,1.1286,1.1288,1.1287,1.1292,1.1273,1.1265,1.1281,1.1281,1.1281,1.1281,1.1281,1.1281,1.0879,1.0912,1.0926,1.0971,1.0992,1.1026,1.1042,1.1066,1.1089,1.1132,1.116,1.118,1.121,1.1248,1.128,1.1289,1.1301,1.1302,1.1312,1.1294,1.1293,1.1292,1.1284,1.1304,1.1304,1.1328,1.1328,1.1328]},{"header":{"parameterUnit":"m.s-1","parameterCategory":1,"la1":30.2991,"la2":30.254,"lo1":-89.0895,"lo2":-89.0444,"dy":0.0017,"dx":0.0017,"nx":28,"ny":28,"refTime":"2023-07-18T03:00:00:Z","depth":0,"parameterNumber":3,"parameterNumberName":"V-component_of_WINDS"},"data":[0,0,0,0,0,0,0,0,0,0,0,0,0,0,0,0,0,0,0,0,0,0,0,0,0,0,0,0,0,0,0,0,0,0,0,0,0,0,0,0,0,0,0,0,0,0,0,0,0,0,0,0,0,0,0,0,0,0,2.8591,2.8591,0,2.8615,2.8615,2.8615,2.8642,2.8643,2.8643,2.8644,2.8665,2.8665,2.8666,0,0,0,0,0,0,0,0,0,0,0,0,0,2.8564,2.8564,2.8591,2.8591,2.8591,2.8615,2.8615,2.8615,2.8642,2.8643,2.8643,2.8644,2.8665,2.8665,2.8666,0,0,0,0,0,0,0,0,0,0,0,0,0,2.8581,2.8565,2.8591,2.8608,2.861,2.8615,2.8615,2.8616,2.8642,2.8643,2.8644,2.8644,2.8665,2.8665,2.8666,2.8655,0,0,2.8667,2.8667,0,0,0,0,0,0,0,0,2.858,2.8582,2.8605,2.8607,2.8609,2.8626,2.8614,2.8629,2.8642,2.863,2.8644,2.8644,2.8652,2.8653,2.8656,2.8656,2.8657,2.8667,2.8667,2.8667,2.8667,0,0,0,0,0,0,0,2.8578,2.8581,2.86,2.8605,2.8607,2.8613,2.8616,2.8617,2.8637,2.8631,2.8633,2.8636,2.8653,2.8656,2.8657,2.8657,2.8667,2.8667,2.8667,2.8667,2.8648,2.8647,0,0,0,0,0,0,2.8575,2.858,2.8599,2.8601,2.8595,2.8613,2.8616,2.862,2.8637,2.864,2.8635,2.8637,2.8655,2.8656,2.8658,2.8645,2.8667,2.8667,2.8667,2.8648,2.8647,2.8647,0,0,0,0,0,0,2.8575,2.8577,2.8599,2.8591,2.8594,2.8613,2.8617,2.862,2.8623,2.864,2.8643,2.8635,2.8656,2.8657,2.8655,2.8646,2.8667,2.8668,2.8649,2.8648,2.8647,2.862,0,0,0,0,0,0,2.8574,2.8576,2.8574,2.8591,2.8594,2.8597,2.8616,2.862,2.8624,2.8627,2.8641,2.8644,2.8656,2.8655,2.8656,2.8647,2.8668,2.865,2.8649,2.8647,2.8622,2.8618,2.8615,0,0,0,0,0,2.8573,2.8565,2.8573,2.8576,2.8592,2.8596,2.8598,2.8614,2.8623,2.862,2.863,2.8643,2.8647,2.8654,2.8655,2.8647,2.8651,2.8649,2.8647,2.8623,2.8619,2.8615,0,0,0,0,0,0,2.8546,2.8568,2.8577,2.8575,2.8584,2.8601,2.8597,2.8609,2.8615,2.8616,2.8634,2.8637,2.8633,2.864,2.8647,2.8636,2.865,2.8649,2.8632,2.8628,2.8624,2.8622,2.8668,0,0,0,0,0,2.854,2.8544,2.8562,2.8558,2.8562,2.8579,2.8581,2.8593,2.8602,2.8605,2.8616,2.8623,2.8626,2.8627,2.8631,2.8623,2.8625,2.8617,2.8614,2.8611,2.8609,2.8604,2.86,2.8641,2.8641,2.8641,0,0,2.8528,2.854,2.8541,2.8553,2.8561,2.8562,2.8582,2.8583,2.8584,2.8605,2.8604,2.8611,2.8621,2.8615,2.8613,2.8621,2.8598,2.8609,2.8607,2.8607,2.8602,2.8598,2.8594,2.864,2.8641,2.8641,0,0,2.8506,2.8516,2.8513,2.852,2.8532,2.8543,2.8542,2.8558,2.8564,2.8563,2.8578,2.8579,2.8584,2.8589,2.8592,2.857,2.8581,2.8571,2.8553,2.8547,2.8543,2.854,2.8531,2.8527,2.8569,2.8569,2.8569,0,2.8488,2.8492,2.851,2.851,2.8513,2.8534,2.853,2.8536,2.8548,2.8549,2.8558,2.8563,2.8571,2.8566,2.856,2.8563,2.8561,2.8569,2.8543,2.854,2.8537,2.8528,2.8525,2.8567,2.8568,2.8568,2.8568,0,2.8469,2.8472,2.8468,2.8479,2.8483,2.848,2.8496,2.8497,2.8507,2.8517,2.8514,2.8524,2.8529,2.8529,2.8539,2.8524,2.8529,2.854,2.8554,2.8532,2.8523,2.852,2.8565,2.8566,2.8566,2.8567,0,0,2.8432,2.8452,2.845,2.8454,2.8468,2.847,2.8467,2.8473,2.8472,2.848,2.8477,2.848,2.8489,2.8493,2.8504,2.8499,2.8478,2.851,2.8511,2.8502,2.846,2.845,2.8446,2.8486,2.8485,2.8485,2.8458,0,2.8411,2.841,2.8424,2.8418,2.8419,2.8437,2.8435,2.8442,2.845,2.8451,2.846,2.8461,2.8475,2.8477,2.8473,2.8481,2.8469,2.8483,2.8481,2.8481,2.8477,2.8442,2.8433,2.8408,2.8455,2.8455,2.8455,0,2.8387,2.8393,2.8386,2.8398,2.8399,2.8397,2.8402,2.8404,2.8411,2.8417,2.8421,2.8433,2.8429,2.8444,2.8438,2.8447,2.8447,2.8451,2.845,2.845,2.8466,2.8439,2.84,2.8396,2.845,2.845,2.8451,0,2.8358,2.8364,2.8361,2.8364,2.8379,2.8376,2.8382,2.839,2.8392,2.8396,2.8396,2.84,2.8401,2.8403,2.8414,2.8424,2.8407,2.8423,2.841,2.841,2.8405,2.8405,2.8364,2.8407,2.8407,2.8407,2.8407,0,2.8333,2.8328,2.8348,2.8345,2.8339,2.8356,2.8349,2.8356,2.8363,2.8361,2.8377,2.8375,2.8391,2.839,2.8399,2.8392,2.8393,2.8396,2.8398,2.8394,2.8393,2.8393,2.8395,2.8406,2.8406,2.8407,2.8407,0,2.8299,2.8313,2.831,2.8323,2.8327,2.8321,2.8332,2.833,2.8339,2.8336,2.8336,2.8349,2.8349,2.8361,2.8363,2.8368,2.8356,2.8362,2.8354,2.8355,2.8341,2.8342,2.8298,2.8292,2.834,2.834,2.8339,0,2.8282,2.8278,2.8291,2.8291,2.8296,2.8296,2.8298,2.8313,2.8313,2.8321,2.8316,2.8317,2.8318,2.8316,2.8325,2.8326,2.8331,2.8315,2.8331,2.8326,2.8328,2.8328,2.8327,2.8312,2.8311,2.8311,2.831,0,2.8248,2.8254,2.8257,2.826,2.8262,2.8265,2.827,2.8268,2.8285,2.8284,2.8284,2.8285,2.8286,2.8285,2.8288,2.8292,2.8303,2.8305,2.8302,2.8297,2.8291,2.8292,2.8343,2.8306,2.8307,2.8307,2.8307,2.8307,2.8221,2.8218,2.8226,2.8227,2.8232,2.8235,2.8233,2.8241,2.8241,2.8244,2.8252,2.825,2.8255,2.8259,2.8262,2.8259,2.8267,2.8263,2.8261,2.8259,2.8256,2.8293,2.826,2.826,2.826,2.826,2.826,0,2.8187,2.8193,2.8194,2.8199,2.8199,2.821,2.8215,2.8214,2.8212,2.8217,2.8217,2.8215,2.8215,2.8223,2.8223,2.8219,2.8224,2.8218,2.8218,2.8218,2.8251,2.8253,2.8214,2.8214,2.8214,2.8214,2.8214,2.8214,2.8169,2.8164,2.8171,2.8167,2.8172,2.8171,2.8172,2.8174,2.8178,2.8175,2.8175,2.8181,2.8186,2.8186,2.8185,2.8187,2.8186,2.8178,2.8182,2.8212,2.8216,2.822,2.8222,2.8178,2.8178,2.8149,2.8149,2.8149]}]]